Location: Bailey Volunteer Fire Department
(33.4359°N, 96.1680°W)
Time: 16:12:22
(UTC+00:00)

SMAP - Pass Details

Date: 13 December 2025
Orbit: 681 x 683 km, 98.1° (Epoch: 14 January)

Event Time Altitude Azimuth Distance (km) Brightness Sun altitude
Rises 23:42:39 0° 159° (SSE) 3,030 6.4 -5.5°
Reaches altitude 10° 23:44:53 10° 156° (SSE) 2,118 5.6 -5.9°
Maximum altitude 23:49:28 65° 76° (ENE) 754 3.1 -6.8°
Drops below altitude 10° 23:54:05 10° 355° (N) 2,131 5.4 -7.7°
Sets 23:56:20 0° 352° (N) 3,050 6.3 -8.1°
